Location: Gleizolles
(44.4833°N, 6.7667°E)
Time: 01:25:49
(UTC+00:00)

S-56A Canister/Altair - Pass Details

Date: 26 June 2024
Orbit: 638 x 2488 km, 38.9° (Epoch: 24 July)

Event Time Altitude Azimuth Distance (km) Brightness Sun altitude
Rises 23:12:23 0° 275° (W) 4,627 11.7 -22.0°
Reaches altitude 10° 23:15:09 10° 271° (W) 3,868 11.2 -22.0°
Maximum altitude 23:25:29 56° 197° (SSW) 2,396 9.6 -22.2°
Drops below altitude 10° 23:39:23 10° 126° (SE) 5,092 11.4 -22.2°
Sets 23:43:37 0° 122° (ESE) 6,151 11.9 -22.2°
